Location: Newark
(48.6461°N, 4.3644°W)
Time: 01:10:01
(UTC+00:00)

Transit 4A - Pass Details

Date: 25 January 2020
Orbit: 872 x 973 km, 66.8° (Epoch: 19 February)

Event Time Altitude Azimuth Distance (km) Brightness Sun altitude
Rises 07:48:46 0° 229° (SW) 3,539 10.7 -1.9°
Reaches altitude 10° 07:51:21 10° 234° (SW) 2,585 10.0 -1.6°
Maximum altitude 07:57:13 55° 312° (NW) 1,067 8.0 -0.7°
Drops below altitude 10° 08:02:59 10° 30° (NNE) 2,545 10.2 0.1°
Sets 08:05:32 0° 35° (NE) 3,480 11.0 0.5°
